User: anonymous   Login
Location: Usti nad Labem
(50.6670°N, 14.0330°E)
Time: 00:08:22
(UTC+01:00)
Language:

ISS - Orbit

View from above orbital plane
View from above orbital plane
View from above satellite
View from above satellite

Ground track
Ground track

The orbit data is extracted from the following two-line orbital elements,

1 25544U 98067A   20304.76561542 -.00000450  00000-0  00000+0 0  9994
2 25544  51.6475  37.6167 0001808  73.0322  65.5108 15.49349325253037
Epoch (UTC): 30 October 2020 18:22:29
Eccentricity: 0.0001808
inclination: 51.6475°
perigee height: 417 km
apogee height: 420 km
right ascension of ascending node: 37.6167°
argument of perigee: 73.0322°
revolutions per day: 15.49349325
mean anomaly at epoch: 65.5108°
orbit number at epoch: 25303

The dashed part of the orbit path shows where the satellite is in the earth's shadow,  

DLR